Bookmark and Share
Track history (hours):
 

Cheyenne

More information available from US FCC via Universal Licensing System and Coast Guard Vessel Documentation Center.

Last reported at 2014-Apr-23 12:29 UTC. Time now 2014-Apr-23 13:16 UTC.
Position N 40°41' W 074°05'.

Length 29 m; draft 4 m.

Type: Towing. MMSI: 367418570.

NotesDate/timePositionNaut miles runAvg speedWind from/ knotsBaromVisibWave heightAir tempDewpointWater temp
2014-Apr-23 12:29N 40°41' W 074°05'0 0.0
2014-Apr-23 07:07N 40°41' W 074°05'0 0.0
2014-Apr-23 06:19N 40°41' W 074°05'1 0.5
2014-Apr-23 03:33N 40°40' W 074°04'3 1.1
2014-Apr-23 01:16N 40°39' W 074°07'3 3.7
2014-Apr-23 00:33N 40°41' W 074°05'3 2.8
2014-Apr-22 23:33N 40°41' W 074°01'4 4.3
2014-Apr-22 22:33N 40°44' W 073°57'0 0.0
2014-Apr-22 20:32N 40°44' W 073°57'4 4.4
2014-Apr-22 19:33N 40°41' W 074°01'3 2.8
2014-Apr-22 18:33N 40°41' W 074°04'  
2014-Apr-18 02:05N 41°07' W 073°53'23 6.4
2014-Apr-17 22:31N 40°45' W 074°01'4 4.1
2014-Apr-17 21:33N 40°41' W 074°03'0 0.5
2014-Apr-17 20:33N 40°41' W 074°03'6 5.7
2014-Apr-17 19:33N 40°45' W 073°58'1 0.2
2014-Apr-17 14:04N 40°46' W 073°57'4 8.9
2014-Apr-17 13:33N 40°42' W 074°00'3 3.4
2014-Apr-17 12:33N 40°41' W 074°05'0 0.0
2014-Apr-17 11:33N 40°41' W 074°05'0 0.0
2014-Apr-17 10:33N 40°41' W 074°05'0 0.0
2014-Apr-17 09:33N 40°41' W 074°05'0 0.0
2014-Apr-17 08:13N 40°41' W 074°05'0 0.0
2014-Apr-17 07:33N 40°41' W 074°05'0 0.0
2014-Apr-17 06:31N 40°41' W 074°05'0 0.0
2014-Apr-17 05:31N 40°41' W 074°05'0 0.0
2014-Apr-17 04:19N 40°41' W 074°05'0 0.0
2014-Apr-17 03:14N 40°41' W 074°05'0 0.0
2014-Apr-17 02:33N 40°41' W 074°05'1 0.6
2014-Apr-17 01:33N 40°41' W 074°04'3 1.6
2014-Apr-16 23:31N 40°40' W 074°08'3 2.7
2014-Apr-16 22:33N 40°39' W 074°05'2 2.3
2014-Apr-16 21:33N 40°41' W 074°05'3 2.5
2014-Apr-16 20:24N 40°40' W 074°08'1 0.4
2014-Apr-16 17:25N 40°42' W 074°08'1 0.4
2014-Apr-16 14:20N 40°42' W 074°07'0 0.1
2014-Apr-16 13:29N 40°42' W 074°07'1 0.1
2014-Apr-16 02:29N 40°41' W 074°08'2 2.7
2014-Apr-16 01:33N 40°41' W 074°05'3 2.9
2014-Apr-16 00:33N 40°42' W 074°01'3 3.0
2014-Apr-15 23:33N 40°44' W 073°58'0 0.2
2014-Apr-15 22:33N 40°44' W 073°58'6 5.6
2014-Apr-15 21:33N 40°41' W 074°04'3 2.6
2014-Apr-15 20:32N 40°39' W 074°06'3 2.7
2014-Apr-15 19:32N 40°41' W 074°08'1 0.8
2014-Apr-15 18:33N 40°40' W 074°08'2 2.3
2014-Apr-15 17:33N 40°39' W 074°06'2 2.3
2014-Apr-15 16:31N 40°41' W 074°05'5 4.8
2014-Apr-15 15:33N 40°43' W 073°59'2 1.9
2014-Apr-15 14:33N 40°44' W 073°58'6 3.0
2014-Apr-15 12:34N 40°41' W 074°04'0 0.2
2014-Apr-15 11:34N 40°41' W 074°05'0 0.0
2014-Apr-15 10:34N 40°41' W 074°05'3 2.8
2014-Apr-15 09:33N 40°43' W 074°02'  

Dump ship's entire track history

sailing weather and tide predictions

Cheyenne — WDE9553 — position and weather